| time (UTC) | temp C | wind direction | speed KPH | gust KPH | rain 1hr cm | rain 24hr cm | rain mn cm | humidity % | barometer mb |
| 20260831145026 | 12 | 47 | 1.6 | 6.4 | 0.00 | 0.00 | 0.00 | 1 | 1010.8 |
| 20260831144525 | 12 | 95 | 1.6 | 9.7 | 0.00 | 0.00 | 0.00 | 1 | 1010.7 |
| 20260831144025 | 12 | 95 | 1.6 | 9.7 | 0.00 | 0.00 | 0.00 | 1 | 1010.7 |
| 20260831143523 | 12 | 110 | 4.8 | 9.7 | 0.00 | 0.00 | 0.00 | 1 | 1010.7 |
| 20260831143022 | 12 | 114 | 1.6 | 6.4 | 0.00 | 0.00 | 0.00 | 1 | 1010.7 |
| 20260831142520 | 11 | 126 | 0.0 | 6.4 | 0.00 | 0.00 | 0.00 | 1 | 1010.7 |
| 20260831142019 | 11 | 184 | 0.0 | 4.8 | 0.00 | 0.00 | 0.00 | 1 | 1010.7 |
| 20260831141517 | 11 | 184 | 0.0 | 4.8 | 0.00 | 0.00 | 0.00 | 1 | 1010.6 |
| 20260831141015 | 10 | 184 | 0.0 | 1.6 | 0.00 | 0.00 | 0.00 | 1 | 1010.6 |
| 20260831140516 | 10 | 284 | 0.0 | 0.0 | 0.00 | 0.00 | 0.00 | 1 | 1010.6 |
| 20260831140029 | 10 | 284 | 0.0 | 0.0 | 0.00 | 0.00 | 0.00 | 1 | 1010.6 |
| 20260831135510 | 10 | 284 | 0.0 | 3.2 | 0.00 | 0.03 | 0.00 | 1 | 1010.4 |
| 20260831135009 | 10 | 284 | 0.0 | 3.2 | 0.00 | 0.03 | 0.00 | 1 | 1010.4 |
| 20260831134508 | 9 | 284 | 0.0 | 0.0 | 0.00 | 0.03 | 0.00 | 1 | 1010.4 |
| 20260831134007 | 9 | 284 | 0.0 | 1.6 | 0.00 | 0.03 | 0.00 | 1 | 1010.3 |
| 20260831133504 | 8 | 284 | 0.0 | 6.4 | 0.00 | 0.03 | 0.00 | 1 | 1010.2 |
| 20260831133003 | 8 | 284 | 1.6 | 6.4 | 0.00 | 0.03 | 0.00 | 1 | 1010.2 |
| 20260831132502 | 8 | 284 | 0.0 | 4.8 | 0.00 | 0.03 | 0.00 | 1 | 1010.2 |
| 20260831132002 | 8 | 284 | 0.0 | 0.0 | 0.00 | 0.03 | 0.00 | 1 | 1010.1 |
| 20260831131602 | 8 | 284 | 0.0 | 0.0 | 0.00 | 0.03 | 0.00 | 1 | 1010.1 |
| 20260831131058 | 9 | 284 | 0.0 | 0.0 | 0.00 | 0.03 | 0.00 | 1 | 1010.1 |
| 20260831130557 | 8 | 284 | 0.0 | 0.0 | 0.00 | 0.03 | 0.00 | 1 | 1010.1 |
| 20260831130056 | 8 | 284 | 0.0 | 0.0 | 0.00 | 0.03 | 0.00 | 1 | 1009.9 |
| 20260831125554 | 9 | 284 | 0.0 | 0.0 | 0.00 | 0.03 | 0.00 | 1 | 1009.8 |
| 20260831125052 | 9 | 284 | 0.0 | 0.0 | 0.00 | 0.03 | 0.00 | 1 | 1009.8 |
| 20260831124550 | 9 | 284 | 0.0 | 0.0 | 0.00 | 0.03 | 0.00 | 1 | 1009.7 |
| 20260831124048 | 8 | 284 | 0.0 | 0.0 | 0.00 | 0.03 | 0.00 | 1 | 1009.6 |
| 20260831123547 | 8 | 284 | 0.0 | 0.0 | 0.00 | 0.03 | 0.00 | 1 | 1009.6 |
| 20260831123045 | 8 | 284 | 0.0 | 4.8 | 0.00 | 0.03 | 0.00 | 1 | 1009.5 |
| 20260831122545 | 8 | 284 | 0.0 | 4.8 | 0.00 | 0.03 | 0.00 | 1 | 1009.7 |
| 20260831122046 | 9 | 319 | 0.0 | 0.0 | 0.00 | 0.03 | 0.00 | 1 | 1009.6 |
| 20260831121546 | 10 | 333 | 0.0 | 3.2 | 0.00 | 0.03 | 0.00 | 1 | 1009.7 |
| 20260831121041 | 10 | 333 | 1.6 | 3.2 | 0.00 | 0.03 | 0.00 | 1 | 1009.8 |
| 20260831120539 | 10 | 30 | 0.0 | 4.8 | 0.00 | 0.03 | 0.00 | 1 | 1009.8 |
| 20260831120038 | 10 | 30 | 0.0 | 8.0 | 0.00 | 0.03 | 0.00 | 1 | 1009.8 |
| 20260831115536 | 10 | 8 | 4.8 | 8.0 | 0.00 | 0.03 | 0.00 | 1 | 1009.9 |
| 20260831115034 | 10 | 86 | 0.0 | 3.2 | 0.00 | 0.03 | 0.00 | 1 | 1009.8 |
| 20260831114533 | 10 | 204 | 0.0 | 3.2 | 0.00 | 0.03 | 0.00 | 1 | 1009.9 |
| 20260831114031 | 10 | 204 | 0.0 | 3.2 | 0.00 | 0.03 | 0.00 | 1 | 1010.0 |
| 20260831113530 | 9 | 204 | 0.0 | 6.4 | 0.00 | 0.03 | 0.00 | 1 | 1010.0 |
| 20260831113029 | 8 | 204 | 0.0 | 8.0 | 0.00 | 0.03 | 0.00 | 1 | 1010.1 |
| 20260831112527 | 8 | 204 | 3.2 | 9.7 | 0.00 | 0.03 | 0.00 | 1 | 1010.0 |
| 20260831112025 | 8 | 204 | 6.4 | 9.7 | 0.00 | 0.03 | 0.00 | 1 | 1009.9 |
| 20260831111524 | 8 | 192 | 8.0 | 9.7 | 0.00 | 0.03 | 0.00 | 1 | 1009.9 |
| 20260831111022 | 8 | 172 | 4.8 | 6.4 | 0.00 | 0.03 | 0.00 | 1 | 1010.0 |
| 20260831110524 | 8 | 245 | 3.2 | 4.8 | 0.00 | 0.03 | 0.00 | 1 | 1009.9 |
| 20260831110020 | 10 | 245 | 0.0 | 0.0 | 0.00 | 0.03 | 0.00 | 1 | 1009.9 |
| 20260831105522 | 10 | 245 | 0.0 | 0.0 | 0.00 | 0.03 | 0.00 | 1 | 1009.8 |
| 20260831105017 | 10 | 245 | 0.0 | 0.0 | 0.00 | 0.03 | 0.00 | 1 | 1009.7 |
| 20260831104519 | 10 | 245 | 0.0 | 0.0 | 0.00 | 0.03 | 0.00 | 1 | 1009.7 |
| 20260831104014 | 10 | 245 | 0.0 | 0.0 | 0.00 | 0.03 | 0.00 | 1 | 1009.7 |
| 20260831103512 | 11 | 245 | 0.0 | 0.0 | 0.00 | 0.03 | 0.00 | 1 | 1009.8 |
| 20260831103010 | 11 | 245 | 0.0 | 0.0 | 0.00 | 0.03 | 0.00 | 1 | 1009.7 |
| 20260831102509 | 11 | 245 | 0.0 | 0.0 | 0.00 | 0.03 | 0.00 | 1 | 1009.8 |
| 20260831102008 | 11 | 245 | 0.0 | 0.0 | 0.00 | 0.03 | 0.00 | 1 | 1009.8 |
| 20260831101512 | 11 | 245 | 0.0 | 0.0 | 0.00 | 0.03 | 0.00 | 1 | 1009.7 |
| 20260831101005 | 11 | 245 | 0.0 | 4.8 | 0.00 | 0.03 | 0.00 | 1 | 1009.6 |
| 20260831100506 | 10 | 245 | 0.0 | 6.4 | 0.00 | 0.03 | 0.00 | 1 | 1009.6 |
| 20260831100002 | 10 | 245 | 0.0 | 4.8 | 0.00 | 0.03 | 0.00 | 1 | 1009.5 |
| 20260831095501 | 11 | 245 | 0.0 | 0.0 | 0.00 | 0.03 | 0.00 | 1 | 1009.4 |
| 20260831095100 | 11 | 245 | 0.0 | 0.0 | 0.00 | 0.03 | 0.00 | 1 | 1009.4 |
| 20260831094558 | 11 | 245 | 0.0 | 0.0 | 0.00 | 0.03 | 0.00 | 1 | 1009.4 |
| 20260831094057 | 11 | 245 | 0.0 | 0.0 | 0.00 | 0.03 | 0.00 | 1 | 1009.4 |
| 20260831093558 | 11 | 245 | 0.0 | 0.0 | 0.00 | 0.03 | 0.00 | 1 | 1009.3 |
| 20260831093057 | 11 | 245 | 0.0 | 0.0 | 0.00 | 0.03 | 0.00 | 1 | 1009.2 |
| 20260831092551 | 10 | 245 | 0.0 | 0.0 | 0.00 | 0.03 | 0.00 | 1 | 1009.2 |
| 20260831092052 | 10 | 245 | 0.0 | 0.0 | 0.00 | 0.03 | 0.00 | 1 | 1009.2 |
| 20260831091548 | 9 | 245 | 0.0 | 3.2 | 0.00 | 0.03 | 0.00 | 1 | 1009.3 |
| 20260831091050 | 9 | 245 | 0.0 | 6.4 | 0.00 | 0.03 | 0.00 | 1 | 1009.1 |
| 20260831090545 | 10 | 245 | 3.2 | 6.4 | 0.00 | 0.03 | 0.00 | 1 | 1009.2 |
| 20260831090056 | 11 | 245 | 0.0 | 0.0 | 0.00 | 0.03 | 0.00 | 1 | 1009.1 |
| 20260831085543 | 11 | 245 | 0.0 | 0.0 | 0.00 | 0.03 | 0.00 | 1 | 1009.1 |
| 20260831085041 | 11 | 245 | 0.0 | 0.0 | 0.00 | 0.03 | 0.00 | 1 | 1009.1 |
| 20260831084547 | 11 | 245 | 0.0 | 0.0 | 0.00 | 0.03 | 0.00 | 1 | 1009.2 |
| 20260831084037 | 11 | 245 | 0.0 | 0.0 | 0.00 | 0.03 | 0.00 | 1 | 1009.2 |
| 20260831083536 | 11 | 245 | 0.0 | 0.0 | 0.00 | 0.03 | 0.00 | 1 | 1009.2 |
| 20260831083035 | 11 | 245 | 0.0 | 0.0 | 0.00 | 0.03 | 0.00 | 1 | 1009.3 |
| 20260831082533 | 11 | 245 | 0.0 | 0.0 | 0.00 | 0.03 | 0.00 | 1 | 1009.3 |
| 20260831082031 | 11 | 245 | 0.0 | 1.6 | 0.00 | 0.03 | 0.00 | 1 | 1009.3 |
| 20260831081530 | 11 | 245 | 0.0 | 1.6 | 0.00 | 0.03 | 0.00 | 1 | 1009.4 |
| 20260831081029 | 12 | 245 | 0.0 | 0.0 | 0.00 | 0.03 | 0.00 | 1 | 1009.5 |
| 20260831080508 | 13 | 245 | 0.0 | 0.0 | 0.00 | 0.03 | 0.00 | 1 | 1009.4 |
| 20260831080032 | 13 | 245 | 0.0 | 0.0 | 0.00 | 0.03 | 0.00 | 1 | 1009.5 |
| 20260831075524 | 13 | 245 | 0.0 | 0.0 | 0.00 | 0.05 | 0.00 | 1 | 1009.5 |
| 20260831075022 | 13 | 245 | 0.0 | 0.0 | 0.00 | 0.05 | 0.00 | 1 | 1009.5 |
| 20260831074525 | 12 | 245 | 0.0 | 0.0 | 0.00 | 0.05 | 0.00 | 1 | 1009.5 |
| 20260831074022 | 12 | 245 | 0.0 | 0.0 | 0.00 | 0.05 | 0.00 | 1 | 1009.6 |
| 20260831073522 | 12 | 245 | 0.0 | 0.0 | 0.00 | 0.05 | 0.00 | 1 | 1009.6 |
| 20260831073017 | 11 | 245 | 0.0 | 4.8 | 0.00 | 0.05 | 0.00 | 1 | 1009.6 |
| 20260831072516 | 11 | 245 | 0.0 | 6.4 | 0.00 | 0.05 | 0.00 | 1 | 1009.6 |
| 20260831072014 | 11 | 245 | 4.8 | 6.4 | 0.00 | 0.05 | 0.00 | 1 | 1009.5 |
| 20260831071513 | 11 | 285 | 0.0 | 0.0 | 0.00 | 0.05 | 0.00 | 1 | 1009.6 |
| 20260831071011 | 12 | 284 | 0.0 | 0.0 | 0.00 | 0.05 | 0.00 | 1 | 1009.6 |
| 20260831070511 | 12 | 285 | 0.0 | 0.0 | 0.00 | 0.05 | 0.00 | 1 | 1009.6 |
| 20260831070009 | 12 | 284 | 0.0 | 0.0 | 0.00 | 0.05 | 0.00 | 1 | 1009.6 |
| 20260831065510 | 12 | 284 | 0.0 | 0.0 | 0.00 | 0.05 | 0.00 | 1 | 1009.6 |
| 20260831065005 | 12 | 285 | 0.0 | 4.8 | 0.00 | 0.05 | 0.00 | 1 | 1009.6 |
| 20260831064504 | 12 | 285 | 1.6 | 4.8 | 0.00 | 0.05 | 0.00 | 1 | 1009.6 |
| 20260831064002 | 12 | 285 | 0.0 | 4.8 | 0.00 | 0.05 | 0.00 | 1 | 1009.4 |
| 20260831063501 | 13 | 150 | 0.0 | 0.0 | 0.00 | 0.05 | 0.00 | 1 | 1009.4 |
| 20260831063059 | 13 | 150 | 0.0 | 0.0 | 0.00 | 0.05 | 0.00 | 1 | 1009.3 |
| 20260831062558 | 13 | 150 | 0.0 | 0.0 | 0.00 | 0.05 | 0.00 | 1 | 1009.3 |
| 20260831062057 | 13 | 150 | 0.0 | 0.0 | 0.00 | 0.05 | 0.00 | 1 | 1009.3 |
| 20260831061605 | 12 | 150 | 0.0 | 0.0 | 0.00 | 0.05 | 0.00 | 1 | 1009.3 |
| 20260831061054 | 13 | 150 | 0.0 | 0.0 | 0.00 | 0.05 | 0.00 | 1 | 1009.4 |
| 20260831060553 | 13 | 150 | 0.0 | 4.8 | 0.00 | 0.05 | 0.00 | 1 | 1009.4 |
| 20260831060058 | 13 | 150 | 3.2 | 8.0 | 0.00 | 0.05 | 0.00 | 1 | 1009.3 |
| 20260831055549 | 13 | 150 | 6.4 | 8.0 | 0.00 | 0.05 | 0.05 | 1 | 1009.3 |
| 20260831055048 | 13 | 150 | 0.0 | 4.8 | 0.00 | 0.05 | 0.05 | 1 | 1009.2 |
| 20260831054548 | 13 | 150 | 3.2 | 6.4 | 0.00 | 0.05 | 0.05 | 1 | 1009.2 |
| 20260831054046 | 13 | 150 | 1.6 | 11.3 | 0.00 | 0.05 | 0.05 | 1 | 1009.3 |
| 20260831053545 | 13 | 150 | 8.0 | 12.9 | 0.00 | 0.05 | 0.05 | 1 | 1009.3 |
| 20260831053058 | 13 | 153 | 6.4 | 14.5 | 0.00 | 0.05 | 0.05 | 1 | 1009.2 |
| 20260831052542 | 13 | 137 | 9.7 | 14.5 | 0.00 | 0.05 | 0.05 | 1 | 1009.4 |
| 20260831052044 | 13 | 182 | 4.8 | 8.0 | 0.00 | 0.05 | 0.05 | 1 | 1009.1 |
| 20260831051543 | 13 | 182 | 0.0 | 1.6 | 0.00 | 0.05 | 0.05 | 1 | 1009.1 |
| 20260831051037 | 13 | 182 | 0.0 | 0.0 | 0.00 | 0.05 | 0.05 | 1 | 1009.1 |
| 20260831050536 | 13 | 182 | 0.0 | 4.8 | 0.00 | 0.05 | 0.05 | 1 | 1009.0 |
| 20260831050042 | 13 | 182 | 0.0 | 8.0 | 0.00 | 0.05 | 0.05 | 1 | 1008.9 |
| 20260831045535 | 13 | 182 | 4.8 | 8.0 | 0.00 | 0.20 | 0.05 | 1 | 1008.9 |
| 20260831045032 | 14 | 182 | 4.8 | 8.0 | 0.00 | 0.20 | 0.05 | 1 | 1008.7 |
| 20260831044530 | 15 | 182 | 4.8 | 8.0 | 0.00 | 0.20 | 0.05 | 1 | 1008.7 |
| 20260831044028 | 15 | 182 | 0.0 | 0.0 | 0.00 | 0.20 | 0.05 | 1 | 1008.7 |
| 20260831043527 | 16 | 182 | 0.0 | 1.6 | 0.00 | 0.20 | 0.05 | 1 | 1008.6 |
| 20260831043026 | 16 | 182 | 0.0 | 4.8 | 0.00 | 0.20 | 0.05 | 1 | 1008.7 |
| 20260831042526 | 16 | 182 | 0.0 | 4.8 | 0.00 | 0.20 | 0.05 | 1 | 1008.7 |
| 20260831042023 | 16 | 182 | 0.0 | 6.4 | 0.00 | 0.20 | 0.05 | 1 | 1008.5 |
| 20260831041522 | 16 | 182 | 1.6 | 6.4 | 0.00 | 0.20 | 0.05 | 1 | 1008.6 |
| 20260831041022 | 17 | 182 | 0.0 | 0.0 | 0.00 | 0.20 | 0.05 | 1 | 1008.4 |
| 20260831040518 | 17 | 182 | 0.0 | 0.0 | 0.00 | 0.20 | 0.05 | 1 | 1008.4 |
| 20260831040018 | 17 | 182 | 0.0 | 6.4 | 0.00 | 0.20 | 0.05 | 1 | 1008.3 |
| 20260831035516 | 17 | 182 | 3.2 | 6.4 | 0.00 | 0.28 | 0.05 | 1 | 1008.4 |
| 20260831035014 | 17 | 182 | 4.8 | 6.4 | 0.00 | 0.28 | 0.05 | 1 | 1008.3 |
| 20260831034514 | 17 | 182 | 3.2 | 6.4 | 0.00 | 0.28 | 0.05 | 1 | 1008.2 |
| 20260831034014 | 17 | 182 | 0.0 | 6.4 | 0.00 | 0.28 | 0.05 | 1 | 1008.2 |
| 20260831033514 | 17 | 182 | 0.0 | 6.4 | 0.00 | 0.28 | 0.05 | 1 | 1008.3 |
| 20260831033024 | 17 | 182 | 0.0 | 1.6 | 0.00 | 0.28 | 0.05 | 1 | 1008.2 |
| 20260831032514 | 17 | 182 | 0.0 | 0.0 | 0.00 | 0.28 | 0.05 | 1 | 1008.1 |
| 20260831032013 | 17 | 182 | 0.0 | 8.0 | 0.00 | 0.28 | 0.05 | 1 | 1008.0 |
| 20260831031515 | 17 | 182 | 3.2 | 16.1 | 0.00 | 0.28 | 0.05 | 1 | 1008.0 |
| 20260831031013 | 17 | 147 | 11.3 | 16.1 | 0.00 | 0.28 | 0.05 | 1 | 1007.9 |
| 20260831030511 | 17 | 288 | 0.0 | 3.2 | 0.00 | 0.28 | 0.05 | 1 | 1007.7 |
| 20260831030008 | 17 | 288 | 0.0 | 8.0 | 0.00 | 0.28 | 0.05 | 1 | 1007.5 |
| 20260831025508 | 17 | 288 | 4.8 | 8.0 | 0.00 | 0.28 | 0.05 | 1 | 1007.5 |
| 20260831025007 | 17 | 288 | 0.0 | 6.4 | 0.00 | 0.28 | 0.05 | 1 | 1007.3 |
| 20260831024507 | 17 | 288 | 0.0 | 4.8 | 0.00 | 0.28 | 0.05 | 1 | 1007.2 |
| 20260831024006 | 17 | 288 | 0.0 | 4.8 | 0.00 | 0.28 | 0.05 | 1 | 1007.1 |
| 20260831023504 | 18 | 288 | 3.2 | 6.4 | 0.00 | 0.28 | 0.05 | 1 | 1006.9 |
| 20260831023002 | 18 | 288 | 4.8 | 8.0 | 0.00 | 0.28 | 0.05 | 1 | 1006.8 |
| 20260831022502 | 18 | 288 | 4.8 | 8.0 | 0.00 | 0.28 | 0.05 | 3 | 1006.7 |
| 20260831022059 | 18 | 288 | 3.2 | 6.4 | 0.00 | 0.28 | 0.05 | 9 | 1006.7 |
| 20260831021559 | 18 | 303 | 4.8 | 9.7 | 0.00 | 0.28 | 0.05 | 19 | 1006.6 |
| 20260831021057 | 19 | 303 | 4.8 | 12.9 | 0.00 | 0.28 | 0.05 | 27 | 1006.4 |
| 20260831020556 | 20 | 303 | 9.7 | 12.9 | 0.00 | 0.28 | 0.05 | 35 | 1006.3 |
| 20260831020108 | 20 | 293 | 8.0 | 12.9 | 0.00 | 0.28 | 0.05 | 43 | 1006.2 |
| 20260831015552 | 21 | 304 | 6.4 | 12.9 | 0.00 | 0.30 | 0.05 | 46 | 1006.2 |
| 20260831015050 | 21 | 329 | 6.4 | 12.9 | 0.00 | 0.30 | 0.05 | 48 | 1006.1 |
| 20260831014548 | 21 | 313 | 6.4 | 16.1 | 0.00 | 0.30 | 0.05 | 50 | 1006.1 |
| 20260831014048 | 21 | 325 | 8.0 | 19.3 | 0.00 | 0.30 | 0.05 | 51 | 1006.1 |
| 20260831013546 | 22 | 305 | 11.3 | 17.7 | 0.00 | 0.30 | 0.05 | 51 | 1006.1 |
| 20260831013044 | 22 | 336 | 11.3 | 19.3 | 0.00 | 0.30 | 0.05 | 52 | 1006.1 |
| 20260831012543 | 22 | 321 | 11.3 | 19.3 | 0.00 | 0.30 | 0.05 | 52 | 1006.1 |
| 20260831012042 | 22 | 345 | 11.3 | 19.3 | 0.00 | 0.30 | 0.05 | 52 | 1006.2 |
| 20260831011544 | 23 | 6 | 9.7 | 20.9 | 0.00 | 0.30 | 0.05 | 52 | 1006.2 |
| 20260831011038 | 23 | 345 | 11.3 | 20.9 | 0.00 | 0.30 | 0.05 | 52 | 1006.2 |
| 20260831010538 | 23 | 355 | 12.9 | 20.9 | 0.00 | 0.30 | 0.05 | 52 | 1006.2 |
| 20260831010036 | 23 | 317 | 12.9 | 22.5 | 0.00 | 0.30 | 0.05 | 52 | 1006.3 |
| 20260831005534 | 23 | 334 | 16.1 | 24.1 | 0.00 | 0.58 | 0.05 | 52 | 1006.3 |
| 20260831005032 | 23 | 328 | 16.1 | 24.1 | 0.00 | 0.58 | 0.05 | 52 | 1006.2 |
| 20260831004531 | 23 | 355 | 17.7 | 24.1 | 0.00 | 0.58 | 0.05 | 52 | 1006.2 |
| 20260831004029 | 23 | 350 | 14.5 | 22.5 | 0.00 | 0.58 | 0.05 | 51 | 1006.2 |
| 20260831003529 | 23 | 328 | 11.3 | 24.1 | 0.00 | 0.58 | 0.05 | 52 | 1006.1 |
| 20260831003033 | 23 | 355 | 16.1 | 25.7 | 0.00 | 0.58 | 0.05 | 52 | 1006.1 |
| 20260831002524 | 24 | 335 | 14.5 | 25.7 | 0.00 | 0.58 | 0.05 | 52 | 1006.0 |
| 20260831002022 | 24 | 311 | 17.7 | 25.7 | 0.00 | 0.58 | 0.05 | 51 | 1006.1 |
| 20260831001521 | 24 | 336 | 14.5 | 24.1 | 0.00 | 0.58 | 0.05 | 52 | 1006.1 |
| 20260831001025 | 24 | 359 | 17.7 | 24.1 | 0.00 | 0.58 | 0.05 | 51 | 1006.1 |
| 20260831000518 | 25 | 328 | 16.1 | 22.5 | 0.00 | 0.58 | 0.05 | 51 | 1006.2 |
| 20260831000020 | 25 | 319 | 14.5 | 22.5 | 0.00 | 0.58 | 0.05 | 50 | 1006.1 |
| 20260830235516 | 25 | 345 | 12.9 | 22.5 | 0.00 | 0.58 | 0.05 | 49 | 1006.2 |
| 20260830235014 | 25 | 350 | 16.1 | 22.5 | 0.00 | 0.58 | 0.05 | 49 | 1006.3 |
| 20260830234531 | 25 | 302 | 14.5 | 27.4 | 0.00 | 0.58 | 0.05 | 50 | 1006.3 |
| 20260830234010 | 25 | 313 | 17.7 | 27.4 | 0.00 | 0.58 | 0.05 | 49 | 1006.3 |
| 20260830233509 | 25 | 321 | 9.7 | 22.5 | 0.00 | 0.58 | 0.05 | 50 | 1006.3 |
| 20260830233008 | 25 | 350 | 16.1 | 24.1 | 0.00 | 0.58 | 0.05 | 51 | 1006.3 |
| 20260830232506 | 25 | 337 | 17.7 | 24.1 | 0.00 | 0.58 | 0.05 | 51 | 1006.3 |
| 20260830232005 | 24 | 14 | 11.3 | 24.1 | 0.00 | 0.58 | 0.05 | 52 | 1006.3 |
| 20260830231507 | 23 | 13 | 16.1 | 24.1 | 0.00 | 0.58 | 0.05 | 52 | 1006.1 |
| 20260830231002 | 23 | 355 | 16.1 | 24.1 | 0.00 | 0.58 | 0.05 | 52 | 1006.2 |
| 20260830230600 | 24 | 14 | 14.5 | 24.1 | 0.00 | 0.58 | 0.05 | 51 | 1006.3 |
| 20260830230059 | 25 | 350 | 12.9 | 20.9 | 0.00 | 0.58 | 0.05 | 51 | 1006.4 |
| 20260830225558 | 25 | 315 | 14.5 | 27.4 | 0.00 | 0.61 | 0.05 | 51 | 1006.4 |
| 20260830225056 | 25 | 308 | 16.1 | 27.4 | 0.00 | 0.61 | 0.05 | 50 | 1006.5 |
| 20260830224555 | 25 | 322 | 17.7 | 27.4 | 0.00 | 0.61 | 0.05 | 51 | 1006.4 |
| 20260830224053 | 25 | 338 | 14.5 | 24.1 | 0.00 | 0.61 | 0.05 | 50 | 1006.4 |
| 20260830223552 | 25 | 355 | 11.3 | 24.1 | 0.00 | 0.61 | 0.05 | 51 | 1006.5 |
| 20260830223050 | 25 | 340 | 14.5 | 20.9 | 0.00 | 0.61 | 0.05 | 51 | 1006.5 |
| 20260830222551 | 25 | 318 | 11.3 | 19.3 | 0.00 | 0.61 | 0.05 | 51 | 1006.6 |
| 20260830222047 | 25 | 330 | 11.3 | 19.3 | 0.00 | 0.61 | 0.05 | 51 | 1006.7 |
| 20260830221548 | 25 | 307 | 11.3 | 22.5 | 0.00 | 0.61 | 0.05 | 50 | 1006.8 |
| 20260830221044 | 25 | 327 | 12.9 | 22.5 | 0.00 | 0.61 | 0.05 | 51 | 1006.8 |
| 20260830220543 | 25 | 285 | 9.7 | 22.5 | 0.00 | 0.61 | 0.05 | 50 | 1006.8 |
| 20260830220047 | 25 | 279 | 14.5 | 22.5 | 0.00 | 0.61 | 0.05 | 50 | 1006.7 |
| 20260830215540 | 25 | 318 | 12.9 | 27.4 | 0.00 | 0.66 | 0.05 | 50 | 1006.7 |
| 20260830215041 | 25 | 317 | 17.7 | 27.4 | 0.00 | 0.66 | 0.05 | 51 | 1006.8 |
| 20260830214537 | 25 | 309 | 12.9 | 24.1 | 0.00 | 0.66 | 0.05 | 51 | 1006.7 |
| 20260830214035 | 24 | 305 | 16.1 | 25.7 | 0.00 | 0.66 | 0.05 | 51 | 1007.0 |
| 20260830213536 | 24 | 355 | 12.9 | 25.7 | 0.00 | 0.66 | 0.05 | 50 | 1007.0 |
| 20260830213036 | 25 | 350 | 12.9 | 22.5 | 0.00 | 0.66 | 0.05 | 50 | 1007.0 |
| 20260830212531 | 24 | 350 | 11.3 | 22.5 | 0.00 | 0.66 | 0.05 | 50 | 1007.0 |
| 20260830212031 | 23 | 345 | 16.1 | 22.5 | 0.00 | 0.66 | 0.05 | 51 | 1006.9 |
| 20260830211529 | 23 | 345 | 14.5 | 24.1 | 0.00 | 0.66 | 0.05 | 51 | 1006.9 |
| 20260830211031 | 24 | 10 | 16.1 | 24.1 | 0.00 | 0.66 | 0.05 | 51 | 1006.9 |
| 20260830210527 | 23 | 345 | 16.1 | 30.6 | 0.00 | 0.66 | 0.05 | 51 | 1007.0 |
| 20260830210024 | 24 | 20 | 24.1 | 30.6 | 0.00 | 0.66 | 0.05 | 50 | 1007.1 |
| 20260830205525 | 25 | 338 | 19.3 | 30.6 | 0.00 | 0.66 | 0.05 | 50 | 1007.3 |
| 20260830205021 | 26 | 336 | 9.7 | 30.6 | 0.00 | 0.66 | 0.05 | 45 | 1007.3 |
| 20260830204524 | 26 | 197 | 16.1 | 25.7 | 0.00 | 0.66 | 0.05 | 43 | 1007.3 |
| 20260830204018 | 26 | 209 | 17.7 | 25.7 | 0.00 | 0.66 | 0.05 | 42 | 1007.5 |
| 20260830203517 | 25 | 245 | 12.9 | 24.1 | 0.00 | 0.66 | 0.05 | 44 | 1007.5 |
| 20260830203015 | 25 | 234 | 6.4 | 30.6 | 0.00 | 0.66 | 0.05 | 44 | 1007.6 |
| 20260830202514 | 26 | 232 | 20.9 | 30.6 | 0.00 | 0.66 | 0.05 | 44 | 1007.7 |
| 20260830202013 | 25 | 207 | 4.8 | 22.5 | 0.00 | 0.66 | 0.05 | 46 | 1007.7 |
| 20260830201512 | 25 | 205 | 12.9 | 22.5 | 0.00 | 0.66 | 0.05 | 45 | 1007.9 |
| 20260830201009 | 25 | 129 | 8.0 | 19.3 | 0.00 | 0.66 | 0.05 | 50 | 1007.9 |
| 20260830200508 | 25 | 131 | 9.7 | 16.1 | 0.00 | 0.66 | 0.05 | 49 | 1008.0 |
| 20260830200007 | 25 | 203 | 4.8 | 16.1 | 0.00 | 0.66 | 0.05 | 49 | 1008.0 |
| 20260830195506 | 24 | 207 | 1.6 | 16.1 | 0.00 | 0.66 | 0.05 | 50 | 1008.1 |
| 20260830195003 | 24 | 120 | 8.0 | 16.1 | 0.00 | 0.66 | 0.05 | 50 | 1008.1 |
| 20260830194502 | 23 | 88 | 11.3 | 17.7 | 0.00 | 0.66 | 0.05 | 49 | 1008.1 |
| 20260830194102 | 23 | 101 | 6.4 | 20.9 | 0.00 | 0.66 | 0.05 | 50 | 1008.3 |
| 20260830193558 | 23 | 145 | 11.3 | 20.9 | 0.00 | 0.66 | 0.05 | 50 | 1008.4 |
| 20260830193057 | 24 | 98 | 12.9 | 19.3 | 0.00 | 0.66 | 0.05 | 50 | 1008.5 |
| 20260830192555 | 24 | 123 | 11.3 | 17.7 | 0.00 | 0.66 | 0.05 | 50 | 1008.6 |
| 20260830192054 | 24 | 172 | 9.7 | 19.3 | 0.00 | 0.66 | 0.05 | 50 | 1008.8 |
| 20260830191559 | 23 | 151 | 11.3 | 19.3 | 0.00 | 0.66 | 0.05 | 50 | 1008.8 |
| 20260830191054 | 23 | 82 | 11.3 | 22.5 | 0.00 | 0.66 | 0.05 | 50 | 1008.9 |
| 20260830190552 | 23 | 118 | 14.5 | 22.5 | 0.00 | 0.66 | 0.05 | 50 | 1009.0 |
| 20260830190100 | 23 | 110 | 11.3 | 22.5 | 0.00 | 0.66 | 0.05 | 48 | 1009.1 |
| 20260830185548 | 23 | 162 | 12.9 | 22.5 | 0.00 | 0.66 | 0.05 | 48 | 1009.2 |
| 20260830185046 | 23 | 116 | 14.5 | 22.5 | 0.00 | 0.66 | 0.05 | 49 | 1009.3 |
| 20260830184543 | 23 | 150 | 12.9 | 22.5 | 0.00 | 0.66 | 0.05 | 47 | 1009.3 |
| 20260830184042 | 22 | 106 | 16.1 | 22.5 | 0.00 | 0.66 | 0.05 | 40 | 1009.6 |
| 20260830183540 | 22 | 116 | 14.5 | 22.5 | 0.00 | 0.66 | 0.05 | 42 | 1009.7 |
| 20260830183041 | 22 | 147 | 16.1 | 20.9 | 0.00 | 0.66 | 0.05 | 42 | 1009.8 |
| 20260830182542 | 22 | 122 | 16.1 | 22.5 | 0.00 | 0.66 | 0.05 | 30 | 1009.9 |
| 20260830182039 | 22 | 145 | 14.5 | 22.5 | 0.00 | 0.66 | 0.05 | 19 | 1010.0 |
| 20260830181535 | 22 | 132 | 12.9 | 20.9 | 0.00 | 0.66 | 0.05 | 7 | 1010.0 |
| 20260830181034 | 22 | 116 | 16.1 | 22.5 | 0.00 | 0.66 | 0.05 | 1 | 1010.2 |
| 20260830180535 | 21 | 155 | 12.9 | 22.5 | 0.00 | 0.66 | 0.05 | 1 | 1010.2 |
| 20260830180031 | 21 | 130 | 14.5 | 24.1 | 0.00 | 0.66 | 0.05 | 1 | 1010.3 |
| 20260830175529 | 21 | 120 | 12.9 | 19.3 | 0.00 | 0.66 | 0.05 | 1 | 1010.2 |
| 20260830175028 | 21 | 128 | 12.9 | 19.3 | 0.00 | 0.66 | 0.05 | 1 | 1010.3 |
| 20260830174528 | 21 | 130 | 12.9 | 19.3 | 0.00 | 0.66 | 0.05 | 1 | 1010.2 |
| 20260830174025 | 21 | 139 | 12.9 | 19.3 | 0.00 | 0.66 | 0.05 | 1 | 1010.3 |
| 20260830173525 | 21 | 113 | 9.7 | 19.3 | 0.00 | 0.66 | 0.05 | 1 | 1010.4 |
| 20260830173021 | 21 | 144 | 11.3 | 19.3 | 0.00 | 0.66 | 0.05 | 1 | 1010.4 |
| 20260830172520 | 20 | 141 | 12.9 | 24.1 | 0.00 | 0.66 | 0.05 | 1 | 1010.4 |
| 20260830172018 | 20 | 144 | 12.9 | 24.1 | 0.00 | 0.66 | 0.05 | 1 | 1010.4 |
| 20260830171517 | 20 | 151 | 11.3 | 19.3 | 0.00 | 0.66 | 0.05 | 1 | 1010.4 |
| 20260830171016 | 20 | 133 | 12.9 | 19.3 | 0.00 | 0.66 | 0.05 | 1 | 1010.4 |
| 20260830170514 | 20 | 121 | 12.9 | 19.3 | 0.00 | 0.66 | 0.05 | 1 | 1010.4 |
| 20260830170032 | 20 | 113 | 11.3 | 19.3 | 0.00 | 0.66 | 0.05 | 1 | 1010.4 |
| 20260830165511 | 20 | 157 | 12.9 | 19.3 | 0.00 | 1.14 | 0.05 | 1 | 1010.4 |
| 20260830165010 | 20 | 147 | 12.9 | 19.3 | 0.00 | 1.14 | 0.05 | 1 | 1010.6 |
| 20260830164508 | 19 | 157 | 16.1 | 24.1 | 0.00 | 1.14 | 0.05 | 1 | 1010.4 |
| 20260830164008 | 19 | 168 | 11.3 | 24.1 | 0.00 | 1.14 | 0.05 | 1 | 1010.4 |
| 20260830163505 | 19 | 169 | 14.5 | 24.1 | 0.00 | 1.14 | 0.05 | 1 | 1010.3 |
| 20260830163006 | 19 | 147 | 14.5 | 19.3 | 0.00 | 1.14 | 0.05 | 1 | 1010.3 |
| 20260830162502 | 18 | 163 | 12.9 | 19.3 | 0.00 | 1.14 | 0.05 | 1 | 1010.3 |
| 20260830162002 | 18 | 140 | 9.7 | 16.1 | 0.00 | 1.14 | 0.05 | 1 | 1010.3 |
| 20260830161608 | 18 | 185 | 8.0 | 17.7 | 0.00 | 1.14 | 0.05 | 1 | 1010.2 |
| 20260830161057 | 17 | 158 | 9.7 | 17.7 | 0.00 | 1.14 | 0.05 | 1 | 1010.2 |
| 20260830160556 | 17 | 153 | 9.7 | 12.9 | 0.00 | 1.14 | 0.05 | 1 | 1010.2 |
| 20260830160105 | 17 | 160 | 6.4 | 11.3 | 0.00 | 1.14 | 0.05 | 1 | 1010.3 |
| 20260830155554 | 17 | 194 | 4.8 | 12.9 | 0.00 | 1.14 | 0.05 | 1 | 1010.3 |
| 20260830155052 | 16 | 174 | 6.4 | 14.5 | 0.00 | 1.14 | 0.05 | 1 | 1010.2 |
| 20260830154551 | 16 | 173 | 8.0 | 14.5 | 0.00 | 1.14 | 0.05 | 1 | 1010.1 |
| 20260830154049 | 16 | 158 | 9.7 | 14.5 | 0.00 | 1.14 | 0.05 | 1 | 1010.1 |
| 20260830153547 | 16 | 149 | 9.7 | 14.5 | 0.00 | 1.14 | 0.05 | 1 | 1010.2 |
| 20260830153046 | 16 | 143 | 8.0 | 12.9 | 0.00 | 1.14 | 0.05 | 1 | 1010.3 |
| 20260830152544 | 16 | 125 | 4.8 | 12.9 | 0.00 | 1.14 | 0.05 | 1 | 1010.3 |
| 20260830152042 | 16 | 163 | 4.8 | 12.9 | 0.00 | 1.14 | 0.05 | 1 | 1010.3 |
| 20260830151552 | 15 | 147 | 9.7 | 12.9 | 0.00 | 1.14 | 0.05 | 1 | 1010.2 |
| 20260830151040 | 15 | 143 | 9.7 | 14.5 | 0.00 | 1.14 | 0.05 | 1 | 1010.1 |
| 20260830150539 | 15 | 120 | 11.3 | 14.5 | 0.00 | 1.14 | 0.05 | 1 | 1010.0 |
| 20260830150038 | 15 | 127 | 8.0 | 12.9 | 0.00 | 1.14 | 0.05 | 1 | 1010.0 |
| 20260830145535 | 15 | 117 | 6.4 | 8.0 | 0.00 | 1.14 | 0.05 | 1 | 1010.0 |